[[{"header":{"parameterUnit":"m.s-1","parameterCategory":1,"la1":30.2991,"la2":30.254,"lo1":-89.0895,"lo2":-89.0444,"dy":0.0017,"dx":0.0017,"nx":28,"ny":28,"refTime":"2024-09-04T09:00:00:Z","depth":0,"parameterNumber":2,"parameterNumberName":"U-component_of_WINDS"},"data":[0,0,0,0,0,0,0,0,0,0,0,0,0,0,0,0,0,0,0,0,0,0,0,0,0,0,0,0,0,0,0,0,0,0,0,0,0,0,0,0,0,0,0,0,0,0,0,0,0,0,0,0,0,0,0,0,0,0,-7.4013,-7.4013,0,-7.3983,-7.3983,-7.3982,-7.3872,-7.3869,-7.3867,-7.3864,-7.3836,-7.3837,-7.3839,0,0,0,0,0,0,0,0,0,0,0,0,0,-7.3979,-7.398,-7.4013,-7.4013,-7.4013,-7.3983,-7.3983,-7.3982,-7.3872,-7.3869,-7.3866,-7.3863,-7.3835,-7.3837,-7.3839,0,0,0,0,0,0,0,0,0,0,0,0,0,-7.3976,-7.3981,-7.4014,-7.3954,-7.3948,-7.3983,-7.3983,-7.3982,-7.3873,-7.3869,-7.3865,-7.3862,-7.3834,-7.3837,-7.3839,-7.393,0,0,-7.3846,-7.3847,0,0,0,0,0,0,0,0,-7.3976,-7.3977,-7.3963,-7.3958,-7.3952,-7.3927,-7.396,-7.3965,-7.3874,-7.3902,-7.3864,-7.386,-7.3869,-7.3869,-7.3871,-7.3928,-7.3927,-7.3847,-7.3848,-7.3849,-7.385,0,0,0,0,0,0,0,-7.3977,-7.3978,-7.4001,-7.3963,-7.3956,-7.393,-7.3925,-7.396,-7.3907,-7.3899,-7.3891,-7.3889,-7.3866,-7.3869,-7.387,-7.3927,-7.3847,-7.3849,-7.385,-7.3851,-7.4056,-7.406,0,0,0,0,0,0,-7.3985,-7.3979,-7.4002,-7.4001,-7.3955,-7.3934,-7.3929,-7.3939,-7.3906,-7.3898,-7.3892,-7.3884,-7.3867,-7.3867,-7.3868,-7.397,-7.3849,-7.3851,-7.3853,-7.4052,-7.4057,-7.4061,0,0,0,0,0,0,-7.3985,-7.3988,-7.4004,-7.3988,-7.3988,-7.3938,-7.3951,-7.3941,-7.3944,-7.3901,-7.3891,-7.3905,-7.3864,-7.3865,-7.3915,-7.3968,-7.3852,-7.3855,-7.4047,-7.4054,-7.4059,-7.4176,0,0,0,0,0,0,-7.3984,-7.3989,-7.4021,-7.3989,-7.3989,-7.405,-7.3954,-7.3943,-7.3948,-7.3937,-7.3911,-7.3903,-7.3861,-7.3912,-7.3917,-7.3969,-7.3856,-7.4042,-7.405,-7.4057,-7.4167,-7.4185,-7.4201,0,0,0,0,0,-7.3983,-7.4056,-7.4024,-7.4027,-7.4029,-7.4053,-7.4053,-7.4002,-7.3953,-7.3986,-7.3959,-7.3904,-7.3963,-7.3918,-7.3923,-7.3976,-7.4039,-7.4048,-7.4057,-7.416,-7.4182,-7.4201,0,0,0,0,0,0,-7.4096,-7.4051,-7.4014,-7.4079,-7.4071,-7.4034,-7.4074,-7.4028,-7.4034,-7.4023,-7.3962,-7.3957,-7.4016,-7.4002,-7.3953,-7.4062,-7.3991,-7.4002,-7.4068,-7.4089,-7.4105,-7.4105,-7.3858,0,0,0,0,0,-7.4129,-7.4152,-7.4111,-7.4172,-7.417,-7.4124,-7.4132,-7.4094,-7.4084,-7.408,-7.4056,-7.4049,-7.4065,-7.4077,-7.409,-7.4167,-7.4159,-7.4206,-7.4223,-7.4237,-7.4245,-7.4284,-7.4304,-7.4091,-7.4091,-7.4091,0,0,-7.4196,-7.4174,-7.4192,-7.4194,-7.4183,-7.4209,-7.4121,-7.4152,-7.4169,-7.4084,-7.4128,-7.4112,-7.41,-7.4163,-7.419,-7.4153,-7.4303,-7.4249,-7.426,-7.426,-7.4295,-7.4315,-7.4333,-7.4097,-7.4096,-7.4095,0,0,-7.433,-7.4317,-7.4365,-7.4356,-7.4341,-7.431,-7.4322,-7.4293,-7.4278,-7.4322,-7.4259,-7.4281,-7.4311,-7.4304,-7.4305,-7.444,-7.4389,-7.4447,-7.4533,-7.4571,-7.4588,-7.4602,-7.4647,-7.4665,-7.4456,-7.4457,-7.4457,0,-7.4415,-7.4449,-7.4396,-7.443,-7.4433,-7.4358,-7.4406,-7.4401,-7.4392,-7.4396,-7.4356,-7.4391,-7.4378,-7.4438,-7.4471,-7.4476,-7.4487,-7.4447,-7.459,-7.4603,-7.4616,-7.4659,-7.4676,-7.4463,-7.4463,-7.4462,-7.4461,0,-7.4553,-7.4579,-7.462,-7.4611,-7.4619,-7.4661,-7.4615,-7.463,-7.4593,-7.4567,-7.4613,-7.4595,-7.4602,-7.4615,-7.458,-7.4671,-7.4648,-7.46,-7.4527,-7.4644,-7.4683,-7.4699,-7.4473,-7.4471,-7.4469,-7.4467,0,0,-7.4752,-7.4716,-7.4731,-7.4726,-7.4706,-7.4725,-7.4765,-7.4771,-7.4784,-7.4782,-7.4812,-7.4841,-7.4796,-7.4797,-7.4761,-7.4796,-7.4901,-7.4743,-7.4741,-7.477,-7.4997,-7.5031,-7.505,-7.4869,-7.4872,-7.4875,-7.4997,0,-7.4877,-7.4939,-7.4894,-7.4965,-7.4987,-7.4918,-7.4952,-7.4944,-7.4922,-7.4938,-7.4914,-7.4934,-7.4875,-7.4875,-7.4907,-7.4881,-7.4945,-7.4873,-7.4896,-7.4897,-7.4896,-7.5071,-7.5106,-7.5222,-7.5013,-7.5015,-7.5017,0,-7.5029,-7.5032,-7.5105,-7.5079,-7.5087,-7.5118,-7.5121,-7.5138,-7.5128,-7.511,-7.5112,-7.5068,-7.5105,-7.5038,-7.5088,-7.504,-7.5048,-7.5037,-7.5041,-7.5037,-7.4961,-7.5069,-7.5258,-7.5274,-7.5041,-7.5039,-7.5037,0,-7.5163,-7.5186,-7.5232,-7.5231,-7.5203,-7.5227,-7.5217,-7.5203,-7.521,-7.5214,-7.5218,-7.5227,-7.5231,-7.5239,-7.5199,-7.5153,-7.5254,-7.5183,-7.5238,-7.5239,-7.5258,-7.5257,-7.5448,-7.5271,-7.5271,-7.5271,-7.527,0,-7.5304,-7.535,-7.5292,-7.5319,-7.537,-7.5319,-7.5371,-7.5354,-7.5343,-7.5367,-7.531,-7.5334,-7.5281,-7.53,-7.5269,-7.5314,-7.5318,-7.5303,-7.5294,-7.5306,-7.5307,-7.5306,-7.5296,-7.5275,-7.5274,-7.5273,-7.5273,0,-7.546,-7.5423,-7.5468,-7.5439,-7.5433,-7.5471,-7.5446,-7.5471,-7.5447,-7.5478,-7.5483,-7.5444,-7.5463,-7.5425,-7.544,-7.5419,-7.5482,-7.5462,-7.5485,-7.5477,-7.5533,-7.5527,-7.5727,-7.575,-7.5563,-7.5565,-7.5566,0,-7.555,-7.5584,-7.5559,-7.557,-7.5563,-7.5583,-7.559,-7.5543,-7.5553,-7.5545,-7.5571,-7.5586,-7.5594,-7.5629,-7.5602,-7.5614,-7.5591,-7.5661,-7.5592,-7.5603,-7.5588,-7.5584,-7.5587,-7.5673,-7.5675,-7.5677,-7.5679,0,-7.5713,-7.5693,-7.5705,-7.5711,-7.5721,-7.5723,-7.5722,-7.5736,-7.5686,-7.57,-7.5719,-7.5726,-7.5741,-7.5756,-7.5761,-7.5751,-7.5707,-7.5702,-7.5714,-7.5724,-7.5734,-7.5726,-7.5519,-7.5696,-7.5694,-7.5693,-7.5692,-7.5691,-7.5836,-7.5862,-7.5848,-7.5864,-7.5858,-7.5859,-7.588,-7.5859,-7.5873,-7.588,-7.5853,-7.5878,-7.5869,-7.5871,-7.5867,-7.5886,-7.5855,-7.5874,-7.5878,-7.5883,-7.589,-7.5736,-7.5888,-7.5887,-7.5887,-7.5886,-7.5886,0,-7.5992,-7.5981,-7.5996,-7.5995,-7.6008,-7.5966,-7.5963,-7.5976,-7.5998,-7.5993,-7.6003,-7.6025,-7.604,-7.6016,-7.6027,-7.6047,-7.6027,-7.6051,-7.6047,-7.6045,-7.5919,-7.5905,-7.6067,-7.6067,-7.6067,-7.6067,-7.6067,-7.6067,-7.6075,-7.6117,-7.6096,-7.6135,-7.6124,-7.6147,-7.6148,-7.6149,-7.6144,-7.6171,-7.6182,-7.6167,-7.6154,-7.6164,-7.6176,-7.6169,-7.6174,-7.6205,-7.619,-7.6072,-7.6054,-7.6037,-7.6023,-7.6207,-7.6208,-7.6314,-7.6315,-7.6316]},{"header":{"parameterUnit":"m.s-1","parameterCategory":1,"la1":30.2991,"la2":30.254,"lo1":-89.0895,"lo2":-89.0444,"dy":0.0017,"dx":0.0017,"nx":28,"ny":28,"refTime":"2024-09-04T09:00:00:Z","depth":0,"parameterNumber":3,"parameterNumberName":"V-component_of_WINDS"},"data":[0,0,0,0,0,0,0,0,0,0,0,0,0,0,0,0,0,0,0,0,0,0,0,0,0,0,0,0,0,0,0,0,0,0,0,0,0,0,0,0,0,0,0,0,0,0,0,0,0,0,0,0,0,0,0,0,0,0,2.8866,2.8866,0,2.8797,2.8796,2.8795,2.8677,2.8674,2.8672,2.867,2.8598,2.8599,2.8599,0,0,0,0,0,0,0,0,0,0,0,0,0,2.8899,2.8899,2.8866,2.8866,2.8865,2.8797,2.8796,2.8795,2.8677,2.8674,2.8672,2.8669,2.8598,2.8599,2.8599,0,0,0,0,0,0,0,0,0,0,0,0,0,2.8863,2.8899,2.8867,2.8798,2.8791,2.8797,2.8796,2.8795,2.8678,2.8674,2.8671,2.8668,2.8598,2.8598,2.8599,2.8666,0,0,2.8599,2.8599,0,0,0,0,0,0,0,0,2.8865,2.8862,2.8809,2.8803,2.8795,2.8742,2.8781,2.8752,2.8678,2.8721,2.867,2.8666,2.8649,2.8645,2.8639,2.8663,2.866,2.8599,2.86,2.86,2.86,0,0,0,0,0,0,0,2.8868,2.8864,2.8839,2.8808,2.88,2.8771,2.8762,2.8775,2.8704,2.8717,2.8708,2.8701,2.8644,2.8639,2.8636,2.8659,2.8599,2.86,2.86,2.86,2.8737,2.874,0,0,0,0,0,0,2.888,2.8867,2.8841,2.8837,2.8823,2.8773,2.8763,2.8762,2.8704,2.8692,2.8704,2.8696,2.864,2.8636,2.8633,2.8709,2.86,2.86,2.86,2.8734,2.8738,2.8742,0,0,0,0,0,0,2.8881,2.8879,2.8844,2.8849,2.8843,2.8776,2.8776,2.8763,2.8757,2.8694,2.8681,2.8712,2.8637,2.8633,2.8659,2.8705,2.86,2.86,2.8729,2.8735,2.874,2.8862,0,0,0,0,0,0,2.8883,2.888,2.8905,2.8851,2.8843,2.8871,2.8779,2.8764,2.8758,2.8746,2.8698,2.8686,2.8634,2.866,2.866,2.8704,2.86,2.8725,2.8732,2.8738,2.8854,2.8871,2.8886,0,0,0,0,0,2.8884,2.8941,2.8906,2.8904,2.8872,2.8874,2.8869,2.8808,2.8762,2.8786,2.8746,2.8688,2.8701,2.8664,2.8662,2.8707,2.8722,2.873,2.8738,2.8847,2.8868,2.8886,0,0,0,0,0,0,2.9002,2.8933,2.8893,2.8935,2.8911,2.8854,2.8882,2.8832,2.8821,2.8811,2.8736,2.8726,2.8763,2.8738,2.8697,2.8771,2.8702,2.871,2.8786,2.8805,2.8821,2.8826,2.86,0,0,0,0,0,2.9032,2.9039,2.8979,2.9021,2.9012,2.895,2.8948,2.8904,2.8876,2.8865,2.8827,2.8803,2.8801,2.8802,2.8797,2.885,2.8839,2.8881,2.8897,2.891,2.8918,2.8946,2.8964,2.8768,2.8768,2.8767,0,0,2.9096,2.9059,2.9068,2.9044,2.902,2.903,2.8942,2.8955,2.8962,2.8867,2.889,2.8862,2.883,2.8871,2.8887,2.8851,2.897,2.892,2.8932,2.8932,2.8956,2.8975,2.8991,2.8773,2.8772,2.8771,0,0,2.9216,2.9189,2.9221,2.92,2.9166,2.9125,2.9133,2.9084,2.9062,2.9084,2.9014,2.9021,2.902,2.9,2.8991,2.9107,2.9053,2.9108,2.9191,2.9219,2.9235,2.9248,2.9291,2.9307,2.9116,2.9116,2.9116,0,2.9298,2.9309,2.9245,2.9263,2.9255,2.9171,2.9205,2.9187,2.9154,2.9151,2.9111,2.911,2.9082,2.9118,2.9147,2.9141,2.9149,2.9112,2.9238,2.9251,2.9262,2.9302,2.9318,2.9123,2.9122,2.9121,2.9121,0,2.9414,2.9423,2.9453,2.9424,2.942,2.9446,2.9385,2.9389,2.9346,2.931,2.9335,2.9299,2.9287,2.9292,2.9249,2.9323,2.9302,2.9252,2.9181,2.9289,2.9325,2.934,2.9133,2.913,2.9128,2.9127,0,0,2.9603,2.9539,2.9552,2.9538,2.9496,2.9502,2.9525,2.9513,2.9518,2.9499,2.9517,2.952,2.9473,2.9462,2.9417,2.9442,2.9539,2.9389,2.9387,2.9418,2.9619,2.9657,2.9676,2.9503,2.9506,2.9508,2.9622,0,2.9714,2.9749,2.9693,2.9741,2.975,2.9672,2.9692,2.9669,2.9637,2.964,2.9604,2.9607,2.9545,2.9539,2.956,2.9523,2.9578,2.9513,2.952,2.9521,2.953,2.9694,2.9734,2.9843,2.9635,2.9638,2.9639,0,2.9848,2.9836,2.9886,2.9842,2.9844,2.9863,2.9849,2.9852,2.9826,2.98,2.979,2.9737,2.9758,2.9692,2.972,2.9677,2.9677,2.966,2.9662,2.966,2.9586,2.9697,2.9876,2.9892,2.9661,2.9659,2.9657,0,2.9982,2.9978,3.0008,2.9999,2.9949,2.9964,2.9944,2.9914,2.9912,2.99,2.9898,2.9889,2.9884,2.9878,2.9826,2.9781,2.9861,2.9789,2.9841,2.9843,2.986,2.986,3.0042,2.9861,2.9861,2.9861,2.986,0,3.0111,3.0145,3.0068,3.0086,3.0122,3.0058,3.0096,3.0068,3.0042,3.0055,2.9987,3.0,2.993,2.9936,2.9895,2.9925,2.9923,2.9904,2.9893,2.991,2.9913,2.9908,2.99,2.9865,2.9864,2.9863,2.9862,0,3.0266,3.0216,3.0243,3.0195,3.0183,3.0212,3.0171,3.0187,3.0151,3.0168,3.0168,3.0112,3.0116,3.0063,3.0056,3.0028,3.0078,3.0053,3.0087,3.0079,3.0135,3.0131,3.032,3.0343,3.0148,3.015,3.0151,0,3.0352,3.0376,3.0331,3.0335,3.0318,3.0325,3.0322,3.0261,3.0262,3.0235,3.0254,3.0253,3.0248,3.0258,3.0217,3.0212,3.0187,3.0254,3.0186,3.0203,3.0189,3.0188,3.0191,3.0268,3.0271,3.0273,3.0274,0,3.051,3.0485,3.0483,3.0475,3.0474,3.0464,3.0449,3.0457,3.039,3.0394,3.0398,3.0395,3.0389,3.0389,3.0377,3.0357,3.0306,3.0297,3.0308,3.0326,3.0345,3.0337,3.0126,3.0292,3.029,3.0289,3.0288,3.0287,3.0633,3.0652,3.0624,3.0625,3.0608,3.0597,3.061,3.0577,3.0579,3.0569,3.0533,3.0544,3.0519,3.0497,3.0483,3.0491,3.0458,3.0475,3.0479,3.0485,3.0495,3.0345,3.0488,3.0488,3.0487,3.0487,3.0486,0,3.0788,3.0767,3.0769,3.0752,3.0754,3.0706,3.0688,3.0693,3.0703,3.0684,3.0682,3.0688,3.0688,3.0649,3.0644,3.0659,3.0635,3.066,3.0658,3.0654,3.0524,3.0515,3.0679,3.0679,3.0679,3.0679,3.0679,3.0679,3.0869,3.0898,3.087,3.0892,3.087,3.088,3.0874,3.0864,3.0849,3.0858,3.0858,3.0833,3.0806,3.08,3.0799,3.0787,3.0789,3.0822,3.0803,3.0682,3.0663,3.0645,3.0636,3.0823,3.0823,3.0932,3.0933,3.0934]}]]